Location: Sternwarte Stuttgart
(48.7670°N, 9.1830°E)
Time: 06:40:46
(UTC+02:00)

GEOS 3 Rocket - Pass Details

Date: 24 January 2019
Orbit: 790 x 829 km, 115.0° (Epoch: 17 October)

Event Time Altitude Azimuth Distance (km) Brightness Sun altitude
Rises 07:15:48 0° 40° (NE) 3,301 7.1 -8.0°
Reaches altitude 10° 07:18:05 10° 39° (NE) 2,366 6.3 -7.6°
Maximum altitude 07:23:13 82° 313° (NW) 805 3.6 -6.8°
Drops below altitude 10° 07:28:18 10° 227° (SW) 2,352 5.8 -6.0°
Sets 07:30:35 0° 226° (SW) 3,280 6.5 -5.7°
